Home   Weather   Brunn am Gebirge   Past weeks

Flag for Austria Past Weather in Brunn am Gebirge, Lower Austria, Austria — Yesterday and Last 2 Weeks

Now
52 °F

Passing clouds.


Feels Like: 51 °F
Forecast: 42 / 60 °F
Wind: 5 mph from Southeast

Location: Wien / Hohe Warte

Current Time: May 1, 2017 at 12:45:22 am

Latest Report: Apr 30, 2017 at 11:00 pm


Visibility: 13 mi

Pressure: 29.98 "Hg

Humidity: 60%

Dew Point: 39 °F

Location of Brunn am GebirgeLocation

Past Weather in Brunn am Gebirge — Graph

°F

Brunn am Gebirge Temperature Yesterday

Maximum temperature yesterday: 61 °F (at 4:00 pm)
Minimum temperature yesterday: 37 °F (at 6:00 am)
Average temperature yesterday: 50 °F

High & Low Weather Summary for the Past Weeks

 TemperatureHumidityPressure
High70 °F (Apr 25, 3:00 pm)97% (Apr 17, 11:00 pm)30.50 "Hg (Apr 17, 11:00 pm)
Low34 °F (Apr 19, 8:00 am)35% (Apr 16, 12:00 pm)29.65 "Hg (Apr 25, 7:00 pm)
Average46 °F69%30.04 "Hg
* Reported Apr 15 11:00 pm — Apr 30 11:00 pm, Brunn am Gebirge, Weather by CustomWeather, © 2017

Note: Actual official high and low records may vary slightly from our data, if they occured in-between our weather recording intervals... More about our weather records

Advertising

Brunn am Gebirge Weather History for the Previous 24 Hours

Scroll right to see more
 ConditionsComfort  
Time TempWeatherWind HumidityBarometerVisibility
11:00 pm
Sun, Apr 30
52 °FPassing clouds.5 mph60%29.98 "Hg12 mi
10:00 pm53 °FPassing clouds.5 mph62%29.99 "Hg12 mi
9:00 pm53 °FPassing clouds.5 mph59%30.00 "Hg16 mi
8:00 pm56 °FPassing clouds.6 mph49%29.99 "Hg22 mi
7:00 pm57 °FPartly sunny.5 mph43%29.99 "Hg22 mi
6:00 pm59 °FScattered clouds.6 mph40%30.00 "Hg25 mi
5:00 pm59 °FPartly sunny.7 mph42%30.01 "Hg28 mi
4:00 pm61 °FRefreshingly cool.6 mph40%30.02 "HgN/A
3:00 pm60 °FRefreshingly cool.6 mph39%30.04 "HgN/A
2:00 pm58 °FScattered clouds.6 mph49%30.05 "Hg25 mi
1:00 pm58 °FScattered clouds.5 mph46%30.07 "Hg25 mi
12:00 pm56 °FRefreshingly cool.5 mph54%30.08 "HgN/A
11:00 am54 °FPassing clouds.3 mph63%30.10 "Hg16 mi
10:00 am51 °FSunny.2 mph68%30.11 "Hg19 mi
9:00 am49 °FCool.2 mph71%30.11 "HgN/A
8:00 am46 °FSunny.1 mph76%30.12 "Hg16 mi
7:00 am39 °FSunny.No wind92%30.13 "Hg17 mi
6:00 am37 °FChilly.1 mph95%30.11 "HgN/A
5:00 am38 °FChilly.1 mph92%30.11 "HgN/A
4:00 am40 °FChilly.1 mph88%30.10 "HgN/A
3:00 am41 °FQuite cool.1 mph83%30.10 "HgN/A
2:00 am43 °FPassing clouds.2 mph77%30.09 "Hg22 mi
1:00 am44 °FQuite cool.3 mph75%30.09 "HgN/A
12:00 am44 °FQuite cool.No wind76%30.09 "HgN/A
Weather by CustomWeather, © 2017

See weather overviewHow to use our weather pages